Probability
0 0 0 0 0 0 0 0 0 0 0 0 0 0 0 1 2 1 1 4 8 9 10 14 17 18 18 18 20 20 19 16 11 5 3 3 2 2 4 4 2 1 0 0 0 0 0 0 0
0 0 0 0 0 0 0 0 0 0 0 0 0 0 0 2 3 3 3 6 11 13 15 18 20 23 23 23 23 22 19 15 10 5 3 2 2 2 3 3 2 0 0 0 0 0 0 0 0
0 0 0 0 0 0 0 0 0 0 0 0 0 0 0 1 3 4 5 8 13 16 18 22 27 31 31 29 27 24 18 12 7 5 3 1 1 1 2 3 2 2 1 0 0 0 0 0 0
1 1 0 0 0 0 0 0 0 0 0 0 0 0 0 0 2 5 6 9 12 15 17 22 30 35 35 34 32 25 17 10 6 5 3 1 0 0 1 2 3 3 2 1 0 0 0 0 0
0 0 0 0 0 0 0 0 0 0 0 0 0 0 0 1 3 5 8 9 11 12 14 20 28 31 32 33 33 28 20 14 10 7 5 3 2 1 1 1 2 2 2 2 1 0 0 0 0
0 0 0 0 0 0 0 0 0 0 0 0 0 0 0 2 3 6 8 9 10 12 13 18 24 26 27 30 31 29 25 19 15 11 7 6 5 4 3 2 2 2 1 2 2 1 0 0 0
0 0 0 0 0 0 0 0 0 0 0 0 0 0 0 1 4 7 9 10 11 13 14 16 19 21 23 25 26 25 24 21 16 11 7 6 7 6 5 5 5 3 2 2 2 1 0 0 0
0 0 0 0 0 0 0 0 0 0 0 0 0 0 0 1 3 6 8 9 11 13 14 15 16 17 17 18 18 17 16 16 12 7 5 5 6 6 6 6 7 5 2 2 2 1 0 0 0
1 1 0 0 0 0 0 0 0 0 0 0 1 1 0 0 2 5 7 6 7 9 10 12 13 12 11 11 11 9 9 9 8 5 4 4 5 5 5 5 6 5 2 1 2 2 1 0 0
0 0 0 0 0 0 0 0 0 0 0 0 1 1 0 0 2 4 4 3 3 4 5 6 6 5 5 5 6 6 6 6 5 4 3 4 4 4 4 3 4 3 1 1 2 2 1 0 0
0 0 0 0 0 0 0 0 0 0 0 0 1 1 0 0 1 3 2 1 1 2 3 2 1 1 1 2 3 4 4 4 4 3 3 3 2 2 2 2 1 1 0 0 1 1 1 0 0
0 0 0 0 0 0 0 0 0 0 0 0 0 0 0 0 1 2 1 0 1 2 4 3 1 0 0 1 1 2 2 2 2 2 2 1 1 1 1 1 0 0 0 0 0 0 0 0 0
0 0 0 0 0 0 0 0 0 0 0 0 0 0 0 0 0 1 1 0 1 3 5 4 1 0 0 0 0 1 1 1 1 1 1 0 0 0 0 0 0 0 1 0 0 0 1 1 1
0 0 0 0 0 0 0 0 0 0 0 0 0 0 0 0 0 0 0 0 1 3 4 4 1 0 0 0 0 0 0 0 0 0 0 0 0 0 0 0 0 0 0 0 0 0 1 2 2
0 0 0 0 0 0 0 0 0 0 0 0 0 0 0 0 0 0 0 1 2 3 3 3 1 0 0 0 0 0 0 0 0 0 0 0 0 0 0 0 0 0 0 0 0 0 1 2 3
0 0 0 0 0 0 0 0 0 0 0 0 0 0 0 0 0 0 0 1 2 3 3 3 2 1 0 0 0 0 0 0 0 0 0 0 0 0 0 0 0 0 0 0 0 0 0 1 2
0 0 0 0 0 0 0 0 0 0 0 0 0 0 0 0 0 0 0 0 1 3 3 3 2 1 0 0 1 1 0 0 0 0 0 0 0 0 0 0 0 0 0 0 0 0 0 0 1
0 0 0 0 0 0 0 0 0 0 0 0 0 0 0 0 0 0 0 0 1 2 3 3 2 1 0 0 1 2 1 0 0 0 0 0 0 0 0 0 0 0 0 0 0 0 0 0 0
0 0 0 0 0 0 0 0 0 0 0 0 0 0 0 0 0 0 0 0 1 2 2 2 1 1 0 0 1 1 1 0 0 0 0 0 0 0 0 0 0 0 0 0 0 0 0 0 0
0 0 0 0 0 0 0 0 0 0 0 0 0 0 0 0 0 0 0 0 0 1 1 1 0 0 0 0 0 1 1 1 0 0 0 0 0 0 0 0 0 0 0 0 0 0 0 0 0
0 0 0 0 0 0 0 0 0 0 0 0 0 0 0 0 0 0 0 0 0 0 0 0 0 0 0 0 0 0 1 2 1 0 0 0 0 0 0 0 0 0 0 0 0 0 0 0 0
0 0 0 0 0 0 0 0 0 0 0 0 0 0 0 0 0 0 0 0 0 0 0 0 0 0 0 0 0 0 1 1 1 0 0 0 0 0 0 0 0 0 0 0 0 0 0 0 0
0 0 0 0 0 0 0 0 0 0 0 0 0 0 0 0 0 0 0 0 0 0 0 0 0 0 0 0 0 0 0 0 0 0 0 0 0 0 0 0 0 0 0 0 0 0 0 0 0
0 0 0 0 0 0 0 0 0 0 0 0 0 0 0 0 0 0 0 0 0 0 0 0 0 0 0 0 0 0 0 0 0 0 0 0 0 0 0 0 0 0 0 0 0 0 0 0 0
0 0 0 0 0 0 0 0 0 0 0 0 0 0 0 0 0 0 0 0 0 0 0 0 0 0 0 0 0 0 0 0 0 0 0 0 0 0 0 0 0 0 0 0 0 0 0 0 0
0 0 0 0 0 0 0 0 0 0 0 0 0 0 0 0 0 0 0 0 0 0 0 0 0 0 0 0 0 0 0 0 0 0 0 0 0 0 0 0 0 0 0 0 0 0 0 0 0
0 0 0 0 0 0 0 0 0 0 0 0 0 0 0 0 0 0 0 0 0 0 0 0 0 0 0 0 0 0 0 0 0 0 0 0 0 0 0 0 0 0 0 0 0 0 0 0 0
0 0 0 0 0 0 0 0 0 0 0 0 0 0 0 0 0 0 0 0 0 0 0 0 0 0 0 0 0 0 0 0 0 1 0 0 0 0 0 0 0 0 0 0 0 0 0 0 0
0 0 0 0 0 0 0 0 0 0 0 0 0 0 0 0 0 0 0 0 0 0 0 0 0 0 0 0 0 0 0 0 1 1 0 0 0 0 0 0 0 0 0 0 0 0 0 0 0
0 0 0 0 0 0 0 0 0 0 0 0 0 0 0 0 0 0 0 0 0 0 0 0 0 0 0 0 0 0 0 1 1 1 0 0 0 0 0 0 0 0 0 0 0 0 0 0 0
Wind_Speed
5 3 3 4 6 4 4 6 4 2 2 2 1 5 6 4 4 4 2 6 10 10 8 11 13 12 12 12 12 12 12 11 11 11 11 11 11 11 11 11 11 11 11 11 11 11 11 11 11
2 2 5 5 5 2 6 6 6 6 4 2 2 4 5 3 2 6 4 7 11 10 8 9 13 13 12 12 12 12 12 12 11 11 11 11 11 11 11 11 11 11 11 11 11 11 10 10 10
2 2 4 5 4 7 6 5 7 4 2 2 2 3 4 4 3 4 5 10 10 8 8 9 13 13 12 12 12 12 11 11 11 11 11 11 11 10 10 10 10 11 10 10 10 11 10 10 10
3 4 4 3 6 7 6 4 3 2 0 1 4 4 2 1 3 5 9 10 10 8 7 9 13 13 12 12 12 11 11 11 11 11 11 11 11 11 10 10 11 11 10 10 10 10 10 10 10
4 4 3 2 7 6 5 5 3 2 2 1 4 5 2 3 4 8 9 10 10 8 6 8 12 12 12 12 11 11 11 11 11 10 10 10 10 10 10 10 10 10 10 10 10 10 9 9 9
3 4 4 6 7 5 5 4 3 3 2 2 5 5 2 1 6 7 9 9 9 9 7 7 11 11 11 11 11 11 11 11 11 10 10 10 10 10 10 10 10 10 10 10 9 9 9 9 9
4 4 5 5 5 5 5 3 4 4 4 4 6 7 3 2 4 6 7 8 7 7 7 5 6 8 10 11 10 10 10 10 10 10 9 9 9 9 9 9 9 9 9 9 9 9 8 8 9
4 4 4 5 5 6 3 2 3 5 4 2 5 9 6 6 5 7 7 7 7 6 6 5 5 5 5 6 9 9 9 9 9 9 9 8 8 8 8 7 8 9 9 8 8 8 8 8 8
3 3 6 7 6 4 2 1 2 1 3 2 2 4 6 9 8 8 7 5 5 5 4 5 4 4 5 5 7 7 8 8 8 7 9 7 4 4 5 6 7 8 8 8 8 7 7 7 7
4 6 9 5 3 2 1 1 1 1 2 1 2 2 7 9 9 9 8 8 6 5 4 4 4 4 4 4 4 3 4 4 4 4 5 4 3 3 4 6 7 7 7 7 7 7 6 5 3
5 8 5 4 3 2 1 2 1 3 3 5 6 7 9 8 8 8 8 7 7 6 5 4 4 4 4 3 3 2 2 3 3 4 5 4 3 3 3 2 3 3 4 3 4 4 3 3 3
5 6 5 3 2 2 2 1 1 3 5 4 7 11 10 10 9 9 8 7 6 6 5 4 4 4 4 4 3 3 3 3 3 3 5 4 3 3 2 2 2 2 1 2 2 2 3 3 3
8 6 5 5 3 3 2 3 3 5 4 2 6 8 10 10 8 7 7 6 6 6 5 5 4 4 4 4 3 3 3 3 3 3 3 4 4 3 3 2 2 2 2 2 2 2 3 3 3
5 5 6 6 5 4 4 4 3 6 3 3 5 7 8 8 8 6 6 6 6 6 5 5 5 4 4 4 3 3 3 3 3 3 4 4 4 4 4 3 2 2 2 2 2 3 3 3 3
4 4 6 6 5 4 2 7 8 6 4 4 5 6 6 6 6 7 8 7 7 6 5 5 5 4 4 4 4 3 3 3 3 3 4 4 4 4 4 4 3 2 2 3 3 3 3 3 3
2 4 7 7 5 4 5 11 6 4 5 6 5 5 5 5 6 6 6 6 6 6 6 5 5 5 4 4 3 3 3 3 3 3 3 4 4 5 4 4 3 3 3 3 3 3 3 3 3
3 6 8 6 5 4 7 8 4 3 5 6 5 5 5 4 4 4 5 6 6 7 7 6 5 5 5 4 3 3 3 3 3 3 3 3 4 5 4 4 3 3 3 3 3 3 3 3 3
6 5 6 7 4 5 6 8 4 2 3 5 5 5 5 5 5 4 5 5 5 5 6 6 5 5 5 3 3 2 2 2 2 3 3 4 4 5 4 3 4 4 3 3 3 3 3 3 3
4 5 6 5 3 4 7 8 6 4 3 3 3 4 4 4 2 2 3 4 4 4 5 5 5 5 4 3 3 3 3 2 2 3 4 4 4 5 4 3 4 4 4 4 4 4 4 3 3
4 5 6 5 4 3 5 6 5 4 4 4 3 3 3 2 1 2 2 2 3 4 5 5 5 5 5 4 3 3 3 2 2 2 3 4 4 5 4 4 4 4 3 4 4 4 3 2 2
6 6 5 4 4 2 1 3 2 2 1 2 1 1 2 3 3 2 2 1 2 3 4 5 5 5 4 4 3 3 2 1 1 2 3 4 5 5 4 5 4 4 4 4 5 5 5 4 1
7 5 5 4 2 3 2 3 3 2 2 3 2 2 1 1 2 2 2 1 1 2 2 3 4 4 4 4 5 6 4 4 4 3 3 4 4 5 5 5 5 5 4 4 5 4 4 6 4
5 4 4 4 3 2 1 3 5 0 1 2 2 2 1 1 1 2 2 2 1 1 1 2 3 3 3 4 5 6 4 3 2 3 4 4 4 4 5 5 5 5 4 5 5 4 4 4 4
2 1 1 1 2 4 5 5 3 0 1 1 2 2 3 2 2 2 2 2 2 1 1 1 3 2 2 3 4 5 6 5 4 4 4 4 3 3 4 5 5 4 4 4 5 5 5 4 4
2 3 1 0 1 5 3 4 3 1 1 1 0 1 2 2 2 3 3 3 2 2 1 1 2 2 2 3 4 5 5 6 6 6 6 5 3 3 5 5 5 4 4 4 4 4 5 5 5
2 4 4 4 4 2 1 4 2 2 3 3 3 2 3 3 2 2 2 2 1 1 1 0 2 3 3 3 3 4 5 4 4 5 5 5 4 4 5 5 5 5 5 5 4 4 4 4 4
2 3 3 2 1 1 2 1 1 6 6 6 5 5 4 4 3 3 3 3 2 2 1 1 1 2 2 3 3 3 4 4 4 4 4 4 4 4 5 5 5 5 5 5 5 4 4 4 4
1 2 2 2 3 2 1 0 2 4 5 5 5 4 4 5 4 4 4 3 3 2 2 2 1 1 2 2 3 3 3 4 4 4 4 4 4 4 5 5 5 5 5 5 5 4 4 5 4
3 1 1 1 2 3 2 1 1 1 2 2 3 4 4 4 4 4 4 4 3 3 3 3 2 1 1 2 2 2 3 3 3 4 4 4 4 5 5 6 6 6 6 5 5 5 5 6 4
3 1 1 2 1 1 2 2 4 3 3 3 3 4 4 4 4 4 4 4 4 4 4 3 2 2 2 2 1 2 3 3 4 4 4 4 5 5 6 6 6 5 5 5 6 6 6 6 6
Wind_Direction
326 355 70 59 59 59 231 242 231 241 229 218 151 123 127 123 145 158 152 140 136 143 151 149 146 143 140 137 135 132 130 128 125 124 122 120 119 118 116 115 112 110 107 105 102 100 99 94 92
352 36 60 65 101 169 253 242 233 231 209 166 101 98 90 84 83 114 129 141 139 143 145 148 145 142 141 138 136 134 132 132 129 127 125 123 121 119 117 114 112 111 108 105 103 100 100 97 95
352 70 88 91 151 191 221 229 222 237 215 155 98 71 104 124 128 144 152 140 131 134 139 146 144 142 141 139 137 137 135 134 132 130 128 126 124 122 119 116 112 109 108 107 105 101 99 98 97
70 56 66 110 216 220 211 218 204 188 78 88 117 86 69 60 161 148 137 134 128 129 135 146 144 144 143 140 139 139 138 136 135 134 132 129 126 121 116 115 112 111 109 110 109 104 100 99 99
68 89 111 223 235 240 235 238 217 213 195 149 118 111 75 346 111 122 131 133 131 131 134 146 144 144 143 142 141 140 141 140 137 136 135 132 128 123 118 117 117 116 114 110 110 106 102 101 101
76 90 145 219 235 247 251 237 204 202 205 163 125 119 142 118 116 128 129 131 133 134 134 141 145 143 142 142 141 141 141 141 140 137 135 132 130 127 123 122 121 118 117 114 113 109 104 102 100
131 137 192 210 225 242 241 227 193 189 192 192 149 128 154 178 139 128 123 125 128 129 128 131 142 143 143 142 143 142 141 138 137 136 132 128 126 126 125 122 123 123 120 117 115 112 106 106 101
146 140 207 214 211 235 237 211 195 179 196 187 137 145 177 195 153 119 110 114 124 126 129 131 133 136 137 142 144 142 139 138 135 131 124 118 120 122 121 118 122 125 124 121 117 115 107 105 99
123 149 215 211 199 225 242 218 264 196 135 105 122 165 174 148 134 118 112 109 121 130 133 135 135 136 137 142 145 139 136 135 131 127 121 115 113 115 115 115 120 125 126 124 121 116 106 100 94
148 202 220 212 201 205 299 255 259 117 121 112 65 77 120 134 139 141 145 150 152 153 152 147 146 149 147 144 130 133 133 132 127 126 123 118 119 116 112 113 115 117 118 120 119 110 103 93 84
186 215 219 233 238 236 278 294 298 150 205 195 173 160 146 145 149 154 159 158 161 159 153 150 152 153 148 138 136 130 126 128 126 130 129 124 115 109 98 102 99 103 103 102 106 95 86 92 93
216 231 218 228 234 225 232 266 287 210 220 205 170 159 153 158 164 167 168 166 159 155 158 152 149 147 148 143 141 138 137 136 137 142 139 133 127 122 118 113 113 108 104 106 100 100 99 99 103
233 244 239 239 240 235 240 245 245 254 244 172 150 154 167 171 175 176 169 163 155 160 163 158 146 147 150 143 146 143 144 146 147 144 147 143 141 143 135 134 129 126 120 123 120 115 114 109 107
233 245 256 256 247 238 230 253 223 245 210 178 167 173 180 181 179 170 166 168 169 168 167 160 153 147 147 149 149 150 152 149 143 145 151 149 150 150 147 144 142 143 143 141 139 132 127 116 112
248 261 273 249 226 224 203 262 234 228 183 190 194 188 183 189 182 183 184 178 174 169 163 161 159 146 146 151 156 149 152 148 149 152 149 148 151 152 149 148 152 158 147 137 126 118 111 112 109
255 238 249 247 205 197 174 249 254 208 180 205 208 202 195 200 195 193 188 176 168 160 158 162 157 148 148 147 149 147 148 146 150 152 151 153 155 153 148 150 160 159 143 137 134 128 114 107 108
225 228 236 251 207 183 191 243 249 205 183 211 214 209 202 204 201 192 180 174 171 165 160 158 151 153 153 145 139 143 148 149 152 153 156 161 158 154 152 155 160 155 142 142 144 132 134 127 118
219 223 225 226 221 187 210 242 257 257 201 216 216 210 203 201 208 192 178 172 168 163 157 157 152 154 149 134 120 122 135 149 150 159 166 164 162 160 154 155 159 154 145 146 141 138 128 131 132
231 230 243 242 249 205 225 245 249 250 238 231 219 201 202 209 210 149 156 154 146 147 150 159 159 160 152 149 153 160 174 171 165 175 172 170 166 162 159 161 163 160 161 162 153 139 135 129 128
251 250 254 273 276 228 235 254 248 234 213 205 198 204 195 187 124 103 101 127 150 160 161 161 167 168 170 171 170 164 164 170 173 176 177 175 169 167 168 164 168 168 159 157 157 147 140 141 145
237 231 232 248 303 298 199 295 275 288 95 55 50 106 153 162 167 148 122 126 139 166 177 176 174 174 174 163 141 119 100 104 160 184 190 189 174 172 170 171 171 172 168 170 170 164 152 158 163
247 239 235 227 222 266 178 257 281 272 30 35 10 20 30 134 147 137 122 113 151 182 178 175 171 172 171 164 166 168 173 183 193 186 188 186 180 178 177 177 177 176 174 171 176 173 160 158 164
239 249 233 224 211 245 216 194 281 318 47 341 335 349 9 25 111 123 137 159 125 116 141 170 164 174 174 174 179 179 184 185 173 170 178 187 187 184 182 178 177 178 178 176 174 169 164 165 167
250 8 36 65 135 229 212 181 277 269 224 309 2 13 13 18 35 49 53 70 65 64 107 145 161 179 185 180 183 188 186 180 176 184 187 192 189 187 187 180 178 181 179 177 178 175 173 173 166
62 91 66 326 218 233 169 159 232 313 20 101 45 7 11 28 46 43 45 41 34 35 64 155 173 188 194 191 194 197 194 189 192 192 193 192 191 195 197 189 183 183 183 178 171 172 180 177 172
223 162 171 200 204 246 143 186 197 24 23 37 47 43 34 26 36 42 45 48 29 18 16 292 198 200 200 202 210 204 197 195 199 197 193 195 198 201 194 189 186 185 183 180 175 174 181 179 179
182 214 198 158 124 176 218 209 7 22 20 23 26 31 26 15 22 21 16 20 11 2 348 302 229 219 214 214 212 211 204 199 197 195 192 196 198 196 191 190 187 186 185 183 177 180 182 178 185
132 164 106 140 167 207 241 266 319 358 4 11 16 21 13 15 18 16 10 2 357 359 351 344 346 273 249 226 215 219 214 203 195 192 197 195 195 190 190 193 191 187 186 185 183 183 179 179 190
24 42 58 157 161 163 189 254 346 353 8 17 13 15 11 10 6 3 358 354 358 6 8 358 350 348 315 266 232 221 221 202 196 200 203 195 192 188 192 197 193 190 189 186 185 187 182 184 187
56 51 132 165 212 169 155 266 353 15 19 35 24 16 17 16 7 3 1 2 2 2 358 348 339 337 317 298 257 234 222 204 200 204 205 196 192 192 189 193 194 191 191 189 187 188 186 187 191